QPF
0.00 0.00 0.01 0.01 0.00 0.00 0.00 0.01 0.01 0.01 0.01 0.01 0.01 0.01 0.01 0.01 0.01 0.00 0.00 0.00 0.00 0.00 0.00 0.00 0.00 0.00 0.00 0.00 0.00 0.01 0.01 0.01 0.02 0.04 0.06 0.06 0.06 0.08 0.10 0.09 0.07 0.03 0.02
0.00 0.00 0.01 0.01 0.00 0.00 0.00 0.00 0.01 0.01 0.01 0.01 0.01 0.01 0.01 0.01 0.01 0.00 0.00 0.00 0.00 0.00 0.00 0.00 0.00 0.00 0.00 0.00 0.00 0.00 0.00 0.01 0.03 0.07 0.10 0.08 0.07 0.07 0.09 0.06 0.04 0.02 0.03
0.00 0.00 0.00 0.01 0.01 0.00 0.00 0.01 0.01 0.01 0.01 0.01 0.01 0.01 0.01 0.01 0.01 0.00 0.00 0.00 0.00 0.00 0.00 0.00 0.00 0.00 0.00 0.00 0.00 0.00 0.01 0.02 0.04 0.07 0.09 0.04 0.05 0.08 0.09 0.08 0.05 0.03 0.02
0.00 0.00 0.00 0.00 0.00 0.00 0.00 0.01 0.01 0.01 0.01 0.01 0.01 0.01 0.01 0.01 0.01 0.00 0.00 0.00 0.00 0.00 0.00 0.00 0.00 0.00 0.00 0.00 0.00 0.00 0.01 0.03 0.06 0.07 0.05 0.03 0.02 0.05 0.06 0.05 0.04 0.02 0.01
0.00 0.00 0.00 0.00 0.00 0.00 0.00 0.00 0.01 0.01 0.01 0.01 0.01 0.01 0.01 0.01 0.00 0.00 0.00 0.00 0.00 0.00 0.00 0.00 0.00 0.00 0.00 0.00 0.00 0.00 0.01 0.03 0.06 0.07 0.07 0.04 0.02 0.04 0.03 0.02 0.02 0.01 0.01
0.00 0.00 0.00 0.00 0.00 0.00 0.00 0.00 0.00 0.00 0.00 0.01 0.01 0.01 0.00 0.01 0.00 0.00 0.00 0.00 0.00 0.00 0.00 0.00 0.00 0.00 0.00 0.00 0.00 0.00 0.01 0.02 0.04 0.05 0.05 0.03 0.03 0.03 0.02 0.02 0.02 0.01 0.01
0.00 0.00 0.00 0.00 0.00 0.00 0.00 0.00 0.00 0.00 0.00 0.00 0.01 0.01 0.00 0.01 0.01 0.01 0.00 0.00 0.00 0.00 0.00 0.00 0.00 0.00 0.00 0.00 0.00 0.00 0.01 0.03 0.04 0.07 0.08 0.05 0.04 0.03 0.01 0.01 0.01 0.01 0.01
0.00 0.00 0.00 0.00 0.00 0.00 0.00 0.00 0.00 0.00 0.00 0.00 0.01 0.01 0.01 0.01 0.01 0.01 0.01 0.01 0.01 0.01 0.01 0.01 0.01 0.00 0.00 0.00 0.00 0.00 0.01 0.02 0.03 0.08 0.09 0.06 0.06 0.04 0.02 0.01 0.01 0.01 0.01
0.00 0.00 0.00 0.00 0.00 0.00 0.00 0.00 0.00 0.00 0.00 0.00 0.01 0.01 0.00 0.00 0.01 0.01 0.02 0.02 0.02 0.02 0.02 0.02 0.01 0.01 0.01 0.01 0.01 0.01 0.01 0.02 0.03 0.07 0.12 0.10 0.08 0.05 0.03 0.02 0.01 0.00 0.01
0.01 0.01 0.00 0.00 0.00 0.00 0.01 0.00 0.01 0.00 0.00 0.01 0.01 0.01 0.01 0.01 0.02 0.04 0.05 0.05 0.05 0.03 0.03 0.04 0.04 0.03 0.03 0.01 0.01 0.01 0.01 0.01 0.02 0.04 0.12 0.20 0.12 0.07 0.04 0.02 0.02 0.01 0.00
0.02 0.02 0.01 0.01 0.01 0.01 0.02 0.02 0.02 0.02 0.02 0.02 0.02 0.03 0.03 0.02 0.04 0.06 0.08 0.09 0.08 0.06 0.05 0.05 0.05 0.04 0.03 0.02 0.02 0.03 0.02 0.01 0.01 0.02 0.06 0.14 0.12 0.11 0.07 0.03 0.02 0.02 0.01
0.03 0.03 0.03 0.03 0.03 0.04 0.05 0.04 0.05 0.07 0.07 0.07 0.06 0.06 0.04 0.04 0.04 0.04 0.06 0.07 0.07 0.07 0.08 0.07 0.07 0.05 0.03 0.02 0.03 0.05 0.03 0.02 0.01 0.02 0.06 0.15 0.19 0.18 0.12 0.06 0.03 0.02 0.02
0.04 0.03 0.04 0.05 0.04 0.05 0.08 0.07 0.07 0.09 0.07 0.07 0.09 0.09 0.06 0.04 0.04 0.06 0.06 0.06 0.05 0.05 0.05 0.05 0.06 0.04 0.03 0.03 0.03 0.05 0.05 0.04 0.05 0.08 0.12 0.21 0.28 0.30 0.18 0.10 0.05 0.03 0.02
0.05 0.04 0.04 0.05 0.04 0.05 0.06 0.08 0.05 0.04 0.05 0.04 0.05 0.04 0.03 0.02 0.02 0.04 0.03 0.04 0.06 0.08 0.07 0.05 0.04 0.04 0.04 0.04 0.04 0.05 0.10 0.10 0.11 0.17 0.23 0.29 0.31 0.29 0.24 0.15 0.09 0.05 0.04
0.06 0.05 0.04 0.04 0.04 0.04 0.04 0.03 0.02 0.03 0.02 0.01 0.01 0.02 0.02 0.01 0.01 0.01 0.01 0.01 0.02 0.04 0.06 0.07 0.05 0.04 0.04 0.04 0.04 0.03 0.05 0.09 0.12 0.17 0.22 0.34 0.38 0.36 0.29 0.21 0.14 0.10 0.06
0.07 0.05 0.05 0.04 0.03 0.03 0.02 0.02 0.02 0.02 0.01 0.01 0.01 0.01 0.01 0.01 0.01 0.01 0.01 0.01 0.01 0.01 0.02 0.02 0.03 0.03 0.04 0.05 0.04 0.03 0.04 0.06 0.07 0.11 0.14 0.21 0.24 0.25 0.24 0.21 0.17 0.13 0.11
0.07 0.06 0.05 0.04 0.03 0.02 0.02 0.02 0.01 0.01 0.00 0.00 0.00 0.00 0.00 0.00 0.00 0.00 0.00 0.01 0.01 0.01 0.02 0.01 0.02 0.01 0.01 0.02 0.02 0.02 0.03 0.04 0.04 0.05 0.07 0.08 0.10 0.19 0.24 0.23 0.19 0.17 0.14
0.06 0.05 0.04 0.03 0.03 0.02 0.01 0.01 0.01 0.00 0.00 0.00 0.00 0.00 0.00 0.00 0.00 0.00 0.00 0.00 0.00 0.01 0.01 0.01 0.01 0.01 0.01 0.01 0.01 0.01 0.02 0.02 0.03 0.03 0.03 0.05 0.07 0.10 0.15 0.19 0.19 0.18 0.18
0.05 0.04 0.02 0.02 0.02 0.01 0.00 0.00 0.00 0.00 0.00 0.00 0.00 0.00 0.00 0.00 0.00 0.00 0.00 0.00 0.00 0.00 0.00 0.00 0.00 0.00 0.01 0.01 0.01 0.01 0.01 0.01 0.01 0.01 0.01 0.03 0.05 0.07 0.08 0.10 0.16 0.17 0.18
0.04 0.03 0.01 0.01 0.01 0.00 0.00 0.00 0.00 0.00 0.00 0.00 0.00 0.00 0.00 0.00 0.00 0.00 0.00 0.00 0.00 0.00 0.00 0.00 0.00 0.00 0.00 0.01 0.01 0.01 0.01 0.01 0.01 0.01 0.01 0.02 0.04 0.05 0.06 0.06 0.08 0.11 0.16
0.03 0.01 0.00 0.00 0.00 0.00 0.00 0.00 0.00 0.01 0.00 0.00 0.00 0.00 0.00 0.00 0.00 0.00 0.00 0.00 0.00 0.00 0.00 0.00 0.00 0.00 0.00 0.00 0.00 0.00 0.01 0.01 0.01 0.00 0.00 0.01 0.02 0.03 0.05 0.06 0.06 0.07 0.09
0.05 0.02 0.00 0.00 0.00 0.00 0.00 0.00 0.00 0.00 0.00 0.00 0.00 0.00 0.00 0.00 0.00 0.00 0.00 0.00 0.00 0.00 0.00 0.00 0.00 0.00 0.00 0.00 0.00 0.00 0.00 0.00 0.00 0.00 0.01 0.01 0.02 0.02 0.03 0.05 0.07 0.08 0.08
0.12 0.05 0.01 0.01 0.01 0.01 0.01 0.00 0.00 0.00 0.00 0.00 0.00 0.00 0.00 0.00 0.00 0.00 0.00 0.00 0.00 0.00 0.00 0.00 0.00 0.00 0.00 0.00 0.00 0.00 0.00 0.00 0.00 0.00 0.01 0.01 0.02 0.02 0.03 0.04 0.04 0.05 0.06
0.16 0.09 0.05 0.03 0.02 0.01 0.01 0.00 0.00 0.00 0.00 0.00 0.00 0.00 0.00 0.00 0.00 0.00 0.00 0.00 0.00 0.00 0.00 0.00 0.00 0.00 0.00 0.00 0.00 0.00 0.00 0.00 0.00 0.00 0.00 0.00 0.01 0.01 0.01 0.02 0.03 0.04 0.05
0.05 0.06 0.05 0.04 0.01 0.01 0.01 0.00 0.00 0.00 0.00 0.00 0.00 0.00 0.00 0.00 0.00 0.00 0.00 0.00 0.00 0.00 0.00 0.00 0.00 0.00 0.00 0.00 0.00 0.00 0.00 0.00 0.00 0.00 0.00 0.00 0.00 0.00 0.01 0.01 0.02 0.03 0.04
0.01 0.01 0.01 0.01 0.01 0.01 0.00 0.00 0.00 0.00 0.00 0.00 0.00 0.00 0.00 0.00 0.00 0.00 0.00 0.00 0.00 0.00 0.00 0.00 0.00 0.00 0.00 0.00 0.00 0.00 0.00 0.00 0.00 0.00 0.00 0.00 0.00 0.00 0.00 0.00 0.00 0.01 0.02
MSLP
1013.48 1013.17 1012.98 1012.94 1013.05 1013.28 1013.59 1013.93 1014.24 1014.50 1014.69 1014.82 1014.93 1015.05 1015.21 1015.42 1015.68 1015.96 1016.23 1016.45 1016.60 1016.67 1016.68 1016.66 1016.62 1016.62 1016.65 1016.71 1016.79 1016.86 1016.91 1016.92 1016.89 1016.85 1016.82 1016.82 1016.88 1017.01 1017.19 1017.40 1017.62 1017.81 1017.97
1013.41 1013.24 1013.15 1013.17 1013.30 1013.52 1013.79 1014.08 1014.35 1014.57 1014.75 1014.89 1015.02 1015.17 1015.36 1015.59 1015.86 1016.14 1016.40 1016.60 1016.74 1016.80 1016.81 1016.79 1016.76 1016.75 1016.77 1016.82 1016.87 1016.93 1016.96 1016.96 1016.95 1016.93 1016.94 1016.98 1017.09 1017.25 1017.46 1017.68 1017.90 1018.09 1018.24
1013.30 1013.26 1013.27 1013.35 1013.51 1013.73 1013.99 1014.26 1014.50 1014.71 1014.88 1015.03 1015.18 1015.34 1015.53 1015.76 1016.00 1016.24 1016.46 1016.63 1016.75 1016.81 1016.82 1016.81 1016.80 1016.80 1016.83 1016.87 1016.92 1016.97 1017.00 1017.02 1017.02 1017.04 1017.09 1017.18 1017.32 1017.51 1017.73 1017.96 1018.18 1018.37 1018.52
1013.18 1013.25 1013.35 1013.50 1013.69 1013.93 1014.19 1014.45 1014.69 1014.90 1015.08 1015.25 1015.40 1015.56 1015.73 1015.92 1016.11 1016.29 1016.45 1016.58 1016.67 1016.72 1016.74 1016.75 1016.77 1016.80 1016.84 1016.89 1016.94 1016.99 1017.03 1017.07 1017.11 1017.16 1017.25 1017.38 1017.54 1017.75 1017.97 1018.21 1018.42 1018.62 1018.78
1013.10 1013.25 1013.41 1013.62 1013.85 1014.10 1014.37 1014.64 1014.89 1015.11 1015.32 1015.50 1015.66 1015.81 1015.95 1016.08 1016.20 1016.32 1016.41 1016.49 1016.55 1016.59 1016.63 1016.67 1016.71 1016.76 1016.82 1016.88 1016.94 1016.99 1017.05 1017.10 1017.17 1017.26 1017.38 1017.53 1017.72 1017.93 1018.15 1018.38 1018.59 1018.79 1018.97
1013.11 1013.30 1013.51 1013.74 1013.99 1014.25 1014.52 1014.80 1015.06 1015.31 1015.53 1015.74 1015.91 1016.05 1016.16 1016.25 1016.32 1016.36 1016.40 1016.43 1016.46 1016.50 1016.55 1016.61 1016.68 1016.75 1016.81 1016.87 1016.92 1016.98 1017.03 1017.10 1017.19 1017.31 1017.45 1017.62 1017.81 1018.02 1018.24 1018.45 1018.67 1018.87 1019.08
1013.23 1013.43 1013.65 1013.88 1014.13 1014.39 1014.65 1014.91 1015.18 1015.44 1015.69 1015.92 1016.11 1016.26 1016.37 1016.43 1016.45 1016.45 1016.44 1016.44 1016.46 1016.49 1016.55 1016.62 1016.70 1016.77 1016.83 1016.87 1016.91 1016.94 1016.99 1017.06 1017.16 1017.29 1017.45 1017.63 1017.83 1018.03 1018.23 1018.43 1018.64 1018.85 1019.08
1013.46 1013.65 1013.86 1014.08 1014.30 1014.52 1014.75 1014.99 1015.24 1015.51 1015.78 1016.03 1016.25 1016.43 1016.54 1016.60 1016.61 1016.59 1016.56 1016.54 1016.54 1016.58 1016.64 1016.71 1016.79 1016.85 1016.88 1016.90 1016.90 1016.91 1016.93 1016.99 1017.09 1017.23 1017.39 1017.58 1017.78 1017.97 1018.16 1018.35 1018.55 1018.76 1019.00
1013.77 1013.94 1014.14 1014.33 1014.51 1014.68 1014.85 1015.05 1015.27 1015.52 1015.79 1016.07 1016.33 1016.54 1016.68 1016.76 1016.78 1016.76 1016.73 1016.70 1016.70 1016.74 1016.79 1016.86 1016.92 1016.96 1016.97 1016.95 1016.91 1016.88 1016.88 1016.91 1017.00 1017.14 1017.31 1017.51 1017.71 1017.90 1018.08 1018.26 1018.44 1018.64 1018.88
1014.10 1014.28 1014.47 1014.63 1014.76 1014.88 1014.98 1015.11 1015.29 1015.51 1015.78 1016.08 1016.36 1016.61 1016.80 1016.91 1016.96 1016.95 1016.92 1016.89 1016.89 1016.92 1016.97 1017.02 1017.06 1017.08 1017.06 1017.00 1016.93 1016.86 1016.83 1016.85 1016.93 1017.07 1017.25 1017.46 1017.66 1017.86 1018.04 1018.20 1018.37 1018.56 1018.78
1014.40 1014.61 1014.81 1014.96 1015.06 1015.12 1015.16 1015.22 1015.34 1015.53 1015.78 1016.08 1016.40 1016.68 1016.90 1017.05 1017.12 1017.13 1017.10 1017.07 1017.06 1017.07 1017.10 1017.15 1017.18 1017.17 1017.13 1017.05 1016.96 1016.87 1016.82 1016.82 1016.90 1017.04 1017.23 1017.44 1017.66 1017.87 1018.05 1018.22 1018.37 1018.54 1018.72
1014.61 1014.88 1015.11 1015.28 1015.36 1015.38 1015.38 1015.39 1015.45 1015.60 1015.84 1016.13 1016.46 1016.76 1017.01 1017.18 1017.26 1017.28 1017.25 1017.20 1017.17 1017.16 1017.18 1017.21 1017.23 1017.22 1017.17 1017.09 1016.98 1016.89 1016.83 1016.83 1016.89 1017.03 1017.23 1017.46 1017.70 1017.92 1018.12 1018.29 1018.44 1018.58 1018.73
1014.71 1015.04 1015.33 1015.53 1015.63 1015.64 1015.61 1015.59 1015.62 1015.74 1015.96 1016.25 1016.57 1016.88 1017.14 1017.31 1017.39 1017.40 1017.35 1017.28 1017.23 1017.20 1017.20 1017.21 1017.22 1017.22 1017.18 1017.10 1017.01 1016.91 1016.85 1016.84 1016.89 1017.03 1017.22 1017.46 1017.71 1017.96 1018.18 1018.36 1018.52 1018.65 1018.77
1014.68 1015.09 1015.44 1015.68 1015.82 1015.85 1015.83 1015.81 1015.83 1015.94 1016.15 1016.42 1016.74 1017.04 1017.28 1017.44 1017.51 1017.50 1017.43 1017.34 1017.25 1017.19 1017.17 1017.17 1017.19 1017.19 1017.16 1017.10 1017.01 1016.92 1016.85 1016.83 1016.87 1016.98 1017.16 1017.39 1017.65 1017.91 1018.16 1018.36 1018.53 1018.66 1018.77
1014.56 1015.01 1015.41 1015.70 1015.89 1015.97 1015.99 1016.00 1016.05 1016.17 1016.37 1016.64 1016.93 1017.21 1017.44 1017.58 1017.63 1017.60 1017.50 1017.38 1017.27 1017.19 1017.15 1017.14 1017.15 1017.16 1017.14 1017.09 1017.01 1016.92 1016.83 1016.77 1016.77 1016.85 1016.99 1017.19 1017.44 1017.71 1017.97 1018.21 1018.40 1018.55 1018.67
1014.40 1014.86 1015.27 1015.60 1015.83 1015.98 1016.06 1016.14 1016.23 1016.39 1016.60 1016.86 1017.13 1017.39 1017.59 1017.71 1017.74 1017.69 1017.59 1017.46 1017.34 1017.24 1017.19 1017.16 1017.16 1017.17 1017.15 1017.09 1017.01 1016.89 1016.77 1016.67 1016.61 1016.61 1016.70 1016.85 1017.06 1017.32 1017.58 1017.84 1018.07 1018.25 1018.40
1014.26 1014.67 1015.07 1015.42 1015.69 1015.90 1016.06 1016.21 1016.38 1016.57 1016.80 1017.05 1017.31 1017.53 1017.70 1017.80 1017.82 1017.78 1017.68 1017.57 1017.45 1017.36 1017.30 1017.27 1017.25 1017.24 1017.21 1017.14 1017.02 1016.87 1016.71 1016.54 1016.40 1016.32 1016.32 1016.39 1016.55 1016.76 1017.02 1017.28 1017.54 1017.76 1017.94
1014.20 1014.53 1014.88 1015.21 1015.51 1015.78 1016.02 1016.25 1016.49 1016.72 1016.97 1017.21 1017.43 1017.62 1017.76 1017.85 1017.87 1017.85 1017.79 1017.70 1017.62 1017.55 1017.50 1017.46 1017.43 1017.40 1017.33 1017.24 1017.09 1016.90 1016.67 1016.44 1016.21 1016.04 1015.93 1015.91 1015.98 1016.13 1016.35 1016.60 1016.87 1017.12 1017.35
1014.25 1014.48 1014.74 1015.04 1015.35 1015.67 1015.98 1016.29 1016.59 1016.86 1017.11 1017.33 1017.51 1017.65 1017.76 1017.83 1017.87 1017.88 1017.87 1017.85 1017.82 1017.79 1017.75 1017.72 1017.68 1017.62 1017.53 1017.40 1017.22 1016.99 1016.72 1016.42 1016.13 1015.86 1015.65 1015.52 1015.49 1015.55 1015.71 1015.92 1016.17 1016.43 1016.68
1014.42 1014.53 1014.71 1014.96 1015.27 1015.63 1016.00 1016.37 1016.71 1017.01 1017.25 1017.42 1017.55 1017.64 1017.71 1017.76 1017.82 1017.87 1017.92 1017.97 1018.01 1018.03 1018.03 1018.01 1017.96 1017.89 1017.78 1017.63 1017.43 1017.19 1016.89 1016.56 1016.21 1015.87 1015.57 1015.33 1015.19 1015.15 1015.21 1015.35 1015.55 1015.79 1016.04
1014.66 1014.68 1014.78 1014.99 1015.29 1015.67 1016.10 1016.51 1016.89 1017.19 1017.40 1017.53 1017.59 1017.61 1017.62 1017.65 1017.72 1017.81 1017.93 1018.05 1018.16 1018.23 1018.28 1018.28 1018.24 1018.16 1018.05 1017.90 1017.71 1017.48 1017.19 1016.86 1016.49 1016.11 1015.74 1015.42 1015.17 1015.02 1014.96 1015.00 1015.12 1015.30 1015.51
1014.93 1014.87 1014.91 1015.09 1015.39 1015.79 1016.25 1016.71 1017.11 1017.40 1017.58 1017.65 1017.63 1017.58 1017.54 1017.53 1017.59 1017.71 1017.88 1018.07 1018.24 1018.37 1018.45 1018.48 1018.45 1018.39 1018.29 1018.17 1018.02 1017.83 1017.59 1017.30 1016.96 1016.58 1016.18 1015.79 1015.45 1015.18 1015.01 1014.92 1014.93 1015.02 1015.16
1015.15 1015.04 1015.05 1015.20 1015.50 1015.93 1016.42 1016.91 1017.33 1017.62 1017.77 1017.78 1017.70 1017.58 1017.47 1017.43 1017.47 1017.60 1017.80 1018.03 1018.24 1018.42 1018.53 1018.58 1018.57 1018.53 1018.47 1018.39 1018.30 1018.18 1018.03 1017.82 1017.54 1017.19 1016.79 1016.38 1015.97 1015.61 1015.31 1015.11 1014.99 1014.96 1015.00
1015.24 1015.12 1015.11 1015.25 1015.57 1016.02 1016.54 1017.06 1017.50 1017.79 1017.93 1017.90 1017.77 1017.60 1017.44 1017.36 1017.38 1017.50 1017.70 1017.94 1018.18 1018.37 1018.50 1018.57 1018.57 1018.55 1018.52 1018.50 1018.48 1018.46 1018.40 1018.29 1018.10 1017.83 1017.47 1017.06 1016.61 1016.18 1015.79 1015.47 1015.23 1015.08 1015.01
1015.17 1015.05 1015.04 1015.19 1015.52 1015.99 1016.54 1017.09 1017.56 1017.88 1018.01 1017.98 1017.83 1017.62 1017.43 1017.32 1017.31 1017.41 1017.60 1017.83 1018.07 1018.25 1018.38 1018.44 1018.45 1018.45 1018.45 1018.47 1018.53 1018.59 1018.64 1018.63 1018.54 1018.35 1018.06 1017.67 1017.23 1016.76 1016.31 1015.91 1015.57 1015.31 1015.13
1014.94 1014.84 1014.84 1014.99 1015.33 1015.81 1016.39 1016.97 1017.47 1017.82 1017.98 1017.97 1017.83 1017.62 1017.42 1017.29 1017.26 1017.34 1017.50 1017.71 1017.92 1018.08 1018.18 1018.23 1018.23 1018.22 1018.24 1018.30 1018.40 1018.53 1018.66 1018.75 1018.76 1018.66 1018.44 1018.11 1017.70 1017.23 1016.76 1016.31 1015.91 1015.58 1015.31
Thickness
5794 5796 5796 5795 5794 5793 5792 5790 5788 5786 5784 5782 5780 5778 5777 5775 5773 5772 5770 5768 5766 5765 5763 5762 5761 5760 5759 5758 5757 5756 5755 5754 5753 5752 5751 5749 5748 5747 5746 5744 5743 5742 5741
5799 5796 5795 5794 5793 5791 5790 5788 5786 5784 5782 5780 5778 5776 5775 5773 5772 5770 5768 5767 5765 5763 5762 5761 5760 5759 5758 5757 5755 5754 5753 5752 5751 5750 5749 5748 5747 5746 5745 5743 5742 5741 5740
5799 5796 5794 5793 5791 5790 5788 5786 5784 5782 5780 5778 5776 5774 5773 5771 5769 5768 5766 5765 5763 5762 5760 5759 5758 5757 5756 5755 5754 5753 5752 5751 5749 5748 5747 5746 5746 5745 5744 5742 5741 5740 5740
5798 5795 5792 5791 5789 5788 5786 5784 5782 5780 5778 5776 5774 5772 5770 5769 5767 5766 5764 5763 5761 5760 5758 5757 5756 5755 5755 5754 5752 5751 5750 5749 5748 5747 5746 5745 5745 5744 5742 5741 5740 5739 5738
5795 5793 5791 5789 5787 5785 5784 5782 5780 5778 5775 5773 5772 5770 5768 5766 5765 5763 5762 5761 5759 5758 5756 5755 5754 5753 5753 5752 5751 5750 5748 5748 5747 5747 5746 5744 5743 5742 5741 5740 5738 5738 5737
5792 5790 5789 5787 5785 5783 5781 5779 5777 5775 5773 5771 5769 5767 5765 5764 5763 5761 5759 5758 5757 5755 5754 5753 5752 5751 5751 5750 5749 5748 5747 5746 5746 5745 5744 5743 5742 5741 5740 5739 5738 5736 5736
5790 5788 5786 5785 5783 5781 5779 5776 5774 5772 5770 5768 5766 5764 5763 5761 5760 5758 5757 5755 5754 5753 5752 5751 5749 5749 5748 5748 5747 5747 5746 5746 5745 5744 5743 5741 5740 5740 5738 5737 5736 5735 5734
5789 5786 5784 5782 5780 5778 5776 5773 5771 5769 5767 5765 5763 5761 5759 5758 5756 5755 5753 5752 5751 5750 5749 5748 5747 5746 5746 5746 5745 5745 5744 5744 5743 5742 5741 5740 5739 5738 5737 5736 5735 5734 5733
5786 5784 5782 5779 5777 5775 5772 5770 5767 5765 5763 5761 5759 5757 5756 5754 5752 5751 5749 5748 5747 5747 5746 5745 5744 5743 5743 5743 5743 5742 5742 5742 5741 5740 5739 5738 5737 5736 5735 5734 5733 5732 5731
5782 5780 5779 5777 5774 5771 5769 5766 5764 5761 5759 5757 5755 5753 5752 5750 5749 5747 5746 5745 5744 5744 5743 5742 5741 5740 5740 5739 5740 5740 5739 5739 5739 5738 5737 5736 5735 5734 5733 5733 5732 5731 5730
5777 5776 5775 5773 5770 5767 5765 5763 5760 5758 5755 5753 5751 5750 5748 5746 5744 5743 5742 5741 5740 5740 5740 5738 5737 5737 5736 5736 5736 5737 5736 5736 5736 5736 5735 5734 5733 5732 5731 5731 5730 5730 5729
5771 5772 5771 5769 5766 5764 5763 5760 5757 5754 5751 5749 5747 5746 5744 5742 5740 5738 5738 5737 5737 5736 5735 5734 5734 5733 5733 5733 5733 5733 5734 5733 5733 5734 5733 5733 5732 5730 5729 5729 5728 5728 5727
5770 5770 5768 5766 5764 5761 5759 5756 5753 5750 5747 5745 5743 5741 5739 5737 5735 5734 5733 5733 5732 5732 5731 5731 5730 5729 5729 5729 5729 5729 5730 5730 5730 5731 5731 5731 5730 5729 5728 5727 5726 5726 5725
5767 5766 5765 5764 5762 5758 5756 5753 5749 5746 5743 5741 5739 5737 5735 5733 5731 5729 5729 5728 5728 5728 5727 5727 5726 5726 5725 5725 5726 5726 5726 5726 5727 5728 5728 5729 5728 5727 5726 5725 5724 5724 5724
5762 5761 5761 5761 5758 5755 5753 5750 5746 5743 5741 5738 5736 5733 5731 5729 5727 5726 5725 5724 5724 5724 5724 5723 5722 5722 5722 5722 5722 5723 5723 5723 5723 5724 5725 5725 5724 5724 5723 5723 5723 5722 5722
5758 5757 5756 5755 5754 5752 5750 5747 5743 5740 5738 5735 5732 5730 5728 5726 5724 5722 5721 5721 5720 5720 5719 5719 5718 5718 5718 5718 5718 5719 5719 5720 5721 5722 5722 5722 5722 5721 5722 5722 5721 5721 5720
5755 5754 5752 5751 5750 5748 5746 5744 5741 5738 5735 5732 5729 5728 5726 5723 5722 5720 5718 5717 5716 5716 5716 5716 5715 5714 5714 5714 5714 5715 5716 5717 5718 5720 5720 5721 5721 5721 5721 5720 5720 5719 5719
5751 5750 5751 5750 5746 5744 5742 5740 5738 5735 5732 5729 5727 5725 5723 5721 5719 5717 5715 5713 5712 5712 5712 5711 5710 5709 5709 5709 5710 5712 5713 5714 5716 5717 5719 5720 5720 5720 5720 5719 5719 5718 5718
5748 5747 5746 5745 5743 5741 5739 5738 5735 5733 5729 5727 5724 5722 5720 5718 5716 5714 5712 5710 5709 5708 5707 5707 5705 5704 5704 5704 5706 5708 5710 5711 5712 5714 5716 5717 5717 5718 5718 5718 5718 5717 5717
5745 5745 5744 5742 5740 5739 5737 5734 5731 5728 5726 5724 5722 5720 5718 5715 5713 5711 5708 5706 5705 5704 5703 5702 5701 5701 5700 5700 5702 5704 5705 5707 5709 5711 5713 5715 5715 5715 5715 5715 5715 5716 5716
5741 5742 5742 5740 5738 5737 5733 5730 5726 5723 5722 5720 5719 5717 5715 5713 5710 5708 5705 5703 5702 5699 5698 5698 5697 5696 5695 5696 5695 5694 5699 5703 5704 5706 5709 5710 5711 5712 5712 5712 5712 5713 5714
5739 5740 5740 5739 5737 5736 5734 5730 5727 5724 5721 5719 5717 5714 5712 5710 5708 5705 5703 5700 5698 5696 5694 5693 5691 5689 5689 5689 5686 5683 5682 5688 5695 5700 5702 5703 5704 5706 5706 5708 5708 5709 5710
5738 5739 5740 5738 5736 5735 5734 5730 5726 5722 5718 5715 5712 5711 5710 5708 5706 5703 5701 5698 5695 5693 5690 5688 5687 5684 5682 5683 5682 5678 5673 5671 5678 5688 5692 5694 5696 5697 5699 5702 5704 5705 5706
5741 5741 5740 5738 5736 5735 5733 5729 5723 5717 5712 5711 5710 5709 5708 5706 5704 5701 5699 5696 5693 5690 5687 5685 5683 5681 5678 5675 5676 5676 5673 5671 5669 5671 5680 5684 5687 5689 5691 5694 5697 5698 5700
5744 5742 5740 5737 5735 5734 5732 5728 5722 5716 5713 5711 5709 5707 5705 5704 5702 5700 5696 5693 5690 5687 5684 5682 5680 5677 5675 5672 5670 5669 5668 5667 5666 5663 5663 5669 5675 5680 5683 5686 5688 5690 5693
5745 5743 5740 5737 5734 5733 5730 5726 5722 5717 5712 5709 5707 5705 5703 5701 5700 5697 5694 5690 5687 5684 5681 5679 5676 5674 5670 5668 5665 5664 5661 5659 5658 5657 5655 5657 5661 5669 5674 5678 5680 5682 5685